Regional Weather Roundup
Issued by NWS

Home | Current Version | Previous Version | Graphics & Text | Print | Product List | Glossary Off
Versions: 1 2 3 4 5 6 7 8 9 10 11 12 13 14 15 16 17 18 19 20 21 22 23 24 25 26 27 28 29 30 31 32 33 34 35 36 37 38 39 40 41 42 43 44 45 46 47 48 49 50

000
ASUS43 KLSX 240907
RWRMO
STLRWRMO ALL

WEATHER SUMMARY FOR MISSOURI
NATIONAL WEATHER SERVICE SPRINGFIELD MO
400 AM CDT MON JUL 24 2017

NOTE: "FAIR" INDICATES FEW OR NO CLOUDS BELOW 12,000 FEET WITH NO
       SIGNIFICANT WEATHER AND/OR OBSTRUCTIONS TO VISIBILITY.
       CURRENT SKY AND/OR WEATHER CONDITIONS ARE NOT AVAILABLE FOR
       CHILLICOTHE AND FARMINGTON.

MOZ001>031-035>038-043-044-053-054-241000-
...NORTHERN AND WESTERN MISSOURI...

CITY           SKY/WX    TMP DP  RH WIND       PRES   REMARKS
KANSAS CTY INT PTCLDY    71  65  81 NE7       29.97S
KANSAS C DTWN  PTCLDY    75  66  73 NE7       29.95S
LEE`S SUMMIT   CLEAR     74  67  78 NE8       29.96S
ST JOSEPH      CLEAR     68  65  90 CALM      29.97F
CHILLICOTHE      N/A     68  65  90 N3        29.97F
KIRKSVILLE     CLEAR     65  61  87 N7        29.96F

$$
MOZ066>068-077>081-088>096-101>105-241000-
...SOUTHWEST MISSOURI...

CITY           SKY/WX    TMP DP  RH WIND       PRES   REMARKS
SPRINGFIELD    CLEAR     73  71  93 SW3       29.95S
JOPLIN         CLEAR     73  71  93 CALM      29.95F
BRANSON        CLOUDY    73  70  88 CALM      29.96S

$$
MOZ032>034-039>042-045>050-055>058-069>072-241000-
...CENTRAL MISSOURI...

CITY           SKY/WX    TMP DP  RH WIND       PRES   REMARKS
COLUMBIA       MOCLDY    72  67  84 E6        29.94R
JEFFERSON CITY PTCLDY    75  72  90 CALM      29.92R
ROLLA          CLEAR     71  69  93 CALM      29.93S
SEDALIA        CLEAR     74  72  93 NE8       29.95R
WHITEMAN AFB   CLEAR     71  71 100 NE8       29.93R
OSAGE BEACH    CLEAR     71  69  93 CALM      29.94R

$$
MOZ051-052-059>065-241000-
...EAST CENTRAL MISSOURI...

CITY           SKY/WX    TMP DP  RH WIND       PRES   REMARKS
ST LOUIS INTL  PTCLDY    75  68  78 N5        29.91S
SPIRIT OF STL  CLEAR     71  71 100 CALM      29.90S
ST CHARLES     PTCLDY    71  67  87 CALM      29.90R

$$
MOZ072>076-082>087-097>100-106>115-241000-
...SOUTH CENTRAL AND SOUTHEAST MISSOURI...

CITY           SKY/WX    TMP DP  RH WIND       PRES   REMARKS
CAPE GIRARDEAU PTCLDY    72  69  90 NW5       29.87F
FARMINGTON     CLOUDY    70  68  93 CALM      29.92S
POPLAR BLUFF   PTCLDY    74  73  97 CALM      29.86F
WEST PLAINS    MOCLDY    70  66  87 W3        29.95S

$$




USA.gov is the U.S. government's official web portal to all federal, state and local government web resources and services.